Location: Champaign/Urbana Astronomical Society Observatory
(40.0333°N, 88.2833°W)
Time: 21:50:54
(UTC-05:00)

AIST 2D - Pass Details

Date: 30 May 2019
Orbit: 456 x 473 km, 97.2° (Epoch: 19 June)

Event Time Altitude Azimuth Distance (km) Brightness Sun altitude
Rises 23:30:44 0° 16° (NNE) 2,495 ? -25.3°
Reaches altitude 10° 23:32:50 10° 22° (NNE) 1,613 ? -25.5°
Enters shadow 23:34:26 25° 33° (NNE) 982 ? -25.6°
